sat.trackr.live / text

‹ back to catalog

PALISADE

NORAD 44634 · 2019-069A

PAYLOAD ACTIVE UNKNOWN

§ Identity

Operator
Country
US
Launch date
2019-10-17
Launch site
RLLB
Launch vehicle
Mass (kg)
RCS (m²)

External: N2YO · Heavens-Above · Gunter

§ Orbital elements

Epoch: 2026-05-24T18:55:05.893824Z

Period
109.76 min
Inclination
87.8852°
Eccentricity
0.0010805
Mean motion
13.11904340 rev/d
Perigee alt
1,207.6 km
Apogee alt
1,224.0 km
Semi-major
7,593.9 km
B*
-7.7659e-4
RAAN
284.4212°
Arg perigee
124.1212°
Mean anomaly
236.0943°
Rev number
31,604

§ Raw data

PALISADE1 44634U 19069A   26144.78826266 -.00000264  00000+0 -77659-3 0  99982 44634  87.8852 284.4212 0010805 124.1212 236.0943 13.11904340316048

JSON: /api/v1/satellites/44634 · /tle

For live sub-satellite position, see the globe view (requires WebGL).

§ Visibility from observer

Set your observer location to see the next 7 days of passes ≥ 10°. The values pass through the URL so the page stays shareable.

No JS? Fill the form by hand. The geolocation button needs JavaScript.